Platteville, WI

12:46 AM CDT on March 23, 2017 (GMT -0500)
Platteville Municipal

Weather History for KPVB - April, 2012

Change the Weather History Date:

Thursday, April 12, 2012

  Actual Average (KDBQ) Record (KDBQ)
Temperature  
Mean Temperature 46 °F -  
Max Temperature 59 °F 56 °F 82 °F (1941)
Min Temperature 32 °F 36 °F 19 °F (1957)
Degree Days  
Heating Degree Days 20    
Moisture  
Dew Point 28 °F    
Average Humidity 53    
Maximum Humidity 81    
Minimum Humidity 29    
Precipitation  
Precipitation 0.00 in - - ()
Sea Level Pressure  
Sea Level Pressure 30.21 in    
Wind  
Wind Speed 3 mph (SSE)    
Max Wind Speed 10 mph    
Max Gust Speed 16 mph    
Visibility 10 miles    
Events      
Averages and records for this station are not official NWS values.
T = Trace of Precipitation, MM = Missing Value Source: NWS Daily Summary

Daily Weather History Graph

Daily Weather History Graph

Search for Another Location

Airport or City:

Trip Planner

Search our weather history database for the weather conditions in past years. The results will help you decide how hot, cold, wet, or windy it might be!

Date:

Astronomy

Apr. 12, 2012 Rise Set
Actual Time 6:24 AM CDT 7:41 PM CDT
Civil Twilight 5:55 AM CDT 8:10 PM CDT
Nautical Twilight 5:20 AM CDT 8:45 PM CDT
Astronomical Twilight 4:43 AM CDT 9:22 PM CDT
Moon 1:33 AM CDT (4/12) 11:15 AM CDT (4/12)
Length of Visible Light 14h 14m
Length of Day
13h 16m
Waning Gibbous, 58% of the Moon is Illuminated
Apr 12
Waning Gibbous
Apr 13
Last Quarter
Apr 21
New
Apr 29
First Quarter
May 5
Full

Hourly Weather History & Observations

Time (CDT) Temp. Windchill Dew Point Humidity Pressure Visibility Wind Dir Wind Speed Gust Speed Precip Events Conditions
12:15 AM 39.2 °F - 26.6 °F 61% 30.23 in 10.0 mi Calm Calm - N/A   Clear
12:35 AM 41.0 °F - 26.6 °F 57% 30.23 in 10.0 mi Calm Calm - N/A   Clear
12:55 AM 41.0 °F - 26.6 °F 57% 30.23 in 10.0 mi Calm Calm - N/A   Clear
1:15 AM 41.0 °F - 26.6 °F 57% 30.23 in 10.0 mi Calm Calm - N/A   Clear
1:35 AM 41.0 °F - 26.6 °F 57% 30.23 in 10.0 mi Calm Calm - N/A   Clear
2:15 AM 41.0 °F - 26.6 °F 57% 30.22 in 10.0 mi Calm Calm - N/A   Clear
2:55 AM 39.2 °F - 26.6 °F 61% 30.22 in 10.0 mi Calm Calm - N/A   Clear
3:15 AM 37.4 °F - 26.6 °F 65% 30.23 in 10.0 mi Calm Calm - N/A   Clear
3:55 AM 39.2 °F - 26.6 °F 61% 30.23 in 10.0 mi Calm Calm - N/A   Clear
4:15 AM 32.0 °F 24.8 °F 26.6 °F 80% 30.24 in 10.0 mi SE 8.1 mph - N/A   Clear
4:35 AM 33.8 °F 28.6 °F 26.6 °F 75% 30.24 in 10.0 mi SSE 5.8 mph - N/A   Clear
5:15 AM 33.8 °F 28.6 °F 26.6 °F 75% 30.25 in 10.0 mi SE 5.8 mph - N/A   Clear
5:55 AM 33.8 °F 29.6 °F 26.6 °F 75% 30.25 in 10.0 mi SE 4.6 mph - N/A   Clear
6:15 AM 33.8 °F 28.6 °F 26.6 °F 75% 30.25 in 10.0 mi SE 5.8 mph - N/A   Clear
6:35 AM 33.8 °F 28.6 °F 26.6 °F 75% 30.25 in 10.0 mi SE 5.8 mph - N/A   Clear
6:55 AM 32.0 °F 25.6 °F 26.6 °F 80% 30.25 in 10.0 mi SE 6.9 mph - N/A   Clear
7:15 AM 33.8 °F 28.6 °F 28.4 °F 81% 30.25 in 10.0 mi SE 5.8 mph - N/A   Clear
7:35 AM 35.6 °F 31.7 °F 28.4 °F 75% 30.25 in 10.0 mi SSE 4.6 mph - N/A   Clear
7:55 AM 37.4 °F 32.8 °F 28.4 °F 70% 30.26 in 10.0 mi South 5.8 mph - N/A   Clear
8:15 AM 41.0 °F 37.1 °F 30.2 °F 65% 30.26 in 10.0 mi South 5.8 mph - N/A   Clear
8:35 AM 42.8 °F 38.6 °F 30.2 °F 61% 30.26 in 10.0 mi South 6.9 mph - N/A   Clear
9:15 AM 46.4 °F 43.5 °F 30.2 °F 53% 30.25 in 10.0 mi SSW 5.8 mph - N/A   Clear
9:55 AM 50.0 °F - 30.2 °F 47% 30.24 in 10.0 mi South 8.1 mph - N/A   Clear
10:15 AM 51.8 °F - 30.2 °F 44% 30.24 in 4.0 mi SSW 4.6 mph - N/A   Scattered Clouds
10:35 AM 51.8 °F - 32.0 °F 47% 30.24 in 5.0 mi SSW 9.2 mph - N/A   Clear
10:55 AM 51.8 °F - 28.4 °F 41% 30.23 in 10.0 mi WSW 6.9 mph - N/A   Scattered Clouds
11:35 AM 53.6 °F - 26.6 °F 35% 30.22 in 10.0 mi SW 5.8 mph - N/A   Clear
11:55 AM 53.6 °F - 26.6 °F 35% 30.21 in 10.0 mi SSE 4.6 mph - N/A   Clear
12:15 PM 55.4 °F - 28.4 °F 36% 30.20 in 10.0 mi SSW 10.4 mph - N/A   Clear
12:35 PM 55.4 °F - 28.4 °F 36% 30.19 in 10.0 mi SW 8.1 mph - N/A   Clear
1:55 PM 57.2 °F - 26.6 °F 31% 30.17 in 10.0 mi South 5.8 mph 16.1 mph N/A   Clear
2:15 PM 59.0 °F - 26.6 °F 29% 30.16 in 10.0 mi SSW 8.1 mph - N/A   Clear
3:15 PM 59.0 °F - 26.6 °F 29% 30.14 in 10.0 mi SW 10.4 mph - N/A   Clear
3:55 PM 59.0 °F - 26.6 °F 29% 30.13 in 10.0 mi Calm Calm - N/A   Clear
4:35 PM 59.0 °F - 26.6 °F 29% 30.12 in 10.0 mi Calm Calm - N/A   Clear
5:55 PM 59.0 °F - 26.6 °F 29% 30.12 in 10.0 mi Calm Calm - N/A   Clear
6:55 PM 57.2 °F - 28.4 °F 33% 30.12 in 10.0 mi Calm Calm - N/A   Clear
7:15 PM 55.4 °F - 28.4 °F 36% 30.12 in 10.0 mi ESE 3.5 mph - N/A   Clear
7:35 PM 55.4 °F - 26.6 °F 33% 30.12 in 10.0 mi SE 3.5 mph - N/A   Clear
7:55 PM 55.4 °F - 26.6 °F 33% 30.12 in 10.0 mi ESE 3.5 mph - N/A   Clear
10:15 PM 46.4 °F 42.4 °F 30.2 °F 53% 30.14 in 10.0 mi East 8.1 mph - N/A   Clear
11:55 PM 46.4 °F 42.4 °F 30.2 °F 53% 30.12 in 10.0 mi East 8.1 mph - N/A   Clear